sat.trackr.live / text

‹ back to catalog

SITRO-AIS 45

NORAD 61788 · 2024-199BF

PAYLOAD ACTIVE UNKNOWN

§ Identity

Operator
Country
CIS
Launch date
2024-11-04
Launch site
VOSTO
Launch vehicle
Mass (kg)
RCS (m²)

External: N2YO · Heavens-Above · Gunter

§ Orbital elements

Epoch: 2026-05-25T03:54:47.615040Z

Period
92.55 min
Inclination
97.2934°
Eccentricity
0.0007395
Mean motion
15.55900090 rev/d
Perigee alt
394.5 km
Apogee alt
404.5 km
Semi-major
6,777.7 km
B*
6.3123e-4
RAAN
20.4672°
Arg perigee
31.2381°
Mean anomaly
328.9312°
Rev number
13,082

§ Raw data

SITRO-AIS 451 61788U 24199BF  26145.16305110  .00043857  00000+0  63123-3 0  99942 61788  97.2934  20.4672 0007395  31.2381 328.9312 15.55900090130825

JSON: /api/v1/satellites/61788 · /tle

For live sub-satellite position, see the globe view (requires WebGL).

§ Visibility from observer

Set your observer location to see the next 7 days of passes ≥ 10°. The values pass through the URL so the page stays shareable.

No JS? Fill the form by hand. The geolocation button needs JavaScript.

§ Radio — SatNOGS DB

ModeDescriptionDownlinkUplink
GMSK USP Mode U - GMSK2k4 - USP 401.185 MHz

1 transmitter · refreshed weekly from db.satnogs.org